ATLAS 5 CENTAUR DEB, 46637

Orbit data source: Space-Track

ATLAS 5 CENTAUR DEB, 46637 is space debris in HEO originally from a launch on Wed, 17 Sep 2014 UTC launched from the Air Force Eastern Test Range (AFETR). Debris objects in space refer to the collection of defunct objects orbiting the Earth. Examples of debris include non-operational satellites, rocket bodies, and fragments generated from explosions, collisions, or faulty payload assembly.

Loading next visibility...
Identifier
46637, 2014-055CM
Orbit
HEO
Country
Flag of USUS
Related business
Flag of USUnited Launch Alliance/Lockheed Martin (US)
Manufacturer
Unknown
Mission
Spacecraft
Bus & Motor
Unknown
Mass
Unknown
Launch date (UTC)
2014-09-17 (11 years ago)
Launch vehicle
Unknown
Launch site
Air Force Eastern Test Range (AFETR)
Object type
Payload
Rocket body
Debris
Shape & HBR
Unknown
Radar Cross Section
Small (<0.1 m²)

Expand to show TLE details & history
Last TLE update: 19 hours ago

TLE from 19 hours ago
0 ATLAS 5 CENTAUR DEB
1 46637U 14055CM  25257.73923501 -.00000048  00000-0  00000-0 0  9995
2 46637  20.9688 116.8777 5057104 213.3422 101.0626  1.94672077 35116
Epoch: 2025-09-14T17:44Z
TLE epoch observation values (Epoch: 2025-09-14T17:44:29.904Z)
Latitude
Longitude
-143.14388°
Altitude
28,534.48 km
Speed
2.85 km/s
True Right ascension
07h 47m 44s
True Declination
0° 00' 00"
Sunlit
Object was in daylight at epoch
Visualization orbit readout
Latitude
Unknown
Longitude
Unknown
Altitude
Unknown
Speed
Unknown
Apparent Right ascension
Unknown
Apparent Declination
Unknown
Sunlit
N/A
Visualization observer readout
Local Sidereal Time
05:38:48
Azimuth
Unknown
Elevation
Unknown
Doppler factor
Unknown
Orbital elements
Apogee altitude
34,420.022 km
Perigee altitude
7,014.947 km
Semi-major axis
27,095.622 km
Eccentricity
0.50571
Inclination
20.9688°
RAAN
116.8777°
Arg. of periapsis
213.3422°
True anomaly
146.67939°
Mean anomaly
101.0626°
Eccentric anomaly
124.84303°
Mean motion
0.48663 °/min
Orbital period
739.79 mins
BSTAR
0
Loading maneuver chart data...
Computing Atmospheric mass density...

Documentation

Showing up to 5 results
|